Regional Weather Roundup
Issued by NWS

Home | Current Version | Previous Version | Text Only | Print | Product List | Glossary On
Versions: 1 2 3 4 5 6 7 8 9 10 11 12 13 14 15 16 17 18 19 20 21 22 23 24 25 26 27 28 29 30 31 32 33 34 35 36 37 38 39 40 41 42 43 44 45 46 47 48 49 50
000
ASUS43 KDMX 291807
RWRIA

WEATHER ROUNDUP FOR IOWA
NATIONAL WEATHER SERVICE DES MOINES IA
100 PM CDT FRI AUG 29 2014

NOTE: "FAIR" INDICATES FEW OR NO CLOUDS BELOW 12,000 FEET WITH NO
SIGNIFICANT WEATHER AND/OR OBSTRUCTIONS TO VISIBILITY.

* - THESE STATIONS ARE NOT NWS STATIONS...THUS NOT UNDER NWS
QUALITY CONTROL.  THEY ALSO DO NOT REPORT WEATHER SUCH
AS PRECIPITATION OR FOG.

IAZ001>003-012>014-020>022-031>034-043>046-291900-
   NORTHWEST IOWA

CITY           SKY/WX    TMP DP  RH WIND       PRES   REMARKS
CARROLL *      LGT RAIN  73  70  88 SW9G18    29.83S
CHEROKEE *     RAIN      72  70  94 S10       29.82S
DENISON *      CLOUDY    72  70  94 SW10      29.81F
LE MARS *      PTSUNNY   72  70  94 W8        29.81S
ORANGE CITY *  DRIZZLE   73  70  88 W6        29.81F
SHELDON *      PTSUNNY   72  72 100 SW9       29.81S FOG
SIOUX CITY     TSTM      72  70  93 N5        29.79F FOG
6HR MIN TEMP:  71; 6HR MAX TEMP:  74; 6HR PCP:  0.18;

SPENCER        CLOUDY    73  70  90 S8        29.81F
6HR MIN TEMP:  68; 6HR MAX TEMP:  73; 6HR PCP:  0.04;

STORM LAKE *   PTSUNNY   72  72 100 SW9       29.83F FOG
$$

IAZ055>058-069>071-079>083-090>094-291900-
   SOUTHWEST IOWA

CITY           SKY/WX    TMP DP  RH WIND       PRES   REMARKS
ATLANTIC *     MOSUNNY   73  68  83 SW10      29.83F
AUDUBON *      SUNNY     75  72  88 S7        29.84F
CLARINDA *     MOSUNNY   73  68  83 SW10      29.85F
COUNCIL BLFS * CLOUDY    70  70 100 SW6       29.81F
CRESTON *      MOSUNNY   77  68  73 S9        29.85F
HARLAN  *      PTSUNNY   72  70  94 SW6       29.86F
RED OAK *      CLOUDY    72  68  88 SW7       29.84F
SHENANDOAH *   PTSUNNY   73  70  88 SW7       29.84F
$$

IAZ047>049-059>061-072>074-084-291900-
   CENTRAL IOWA

CITY           SKY/WX    TMP DP  RH WIND       PRES   REMARKS
AMES           PTSUNNY   81  70  69 SW12      29.82S HX  84
6HR MIN TEMP:  65; 6HR MAX TEMP:  83;

ANKENY *       SUNNY     84  72  65 SW10      29.81F HX  89
CHARITON *     SUNNY     84  72  65 S12G17    29.84F HX  89
DES MOINES     PTSUNNY   84  71  65 SW12      29.81F HX  89
6HR MIN TEMP:  69; 6HR MAX TEMP:  85;

GRINNELL*      SUNNY     84  70  61 S13       29.84F HX  88
KNOXVILLE *    SUNNY     84  70  61 S10G17    29.82F HX  88
MARSHALLTOWN   MOSUNNY   84  71  65 S13       29.81F HX  89
6HR MIN TEMP:  66; 6HR MAX TEMP:  84;

PELLA *        SUNNY     86  72  64 S12G17    29.84F HX  92
PERRY *          N/A     79  70  73 SW8       29.83F HX  81
$$

IAZ004>006-015-016-023>025-035-036-291900-
   NORTH CENTRAL IOWA

CITY           SKY/WX    TMP DP  RH WIND       PRES   REMARKS
ALGONA *       PTSUNNY   75  70  83 SW10G16   29.83R
CLARION *      MOSUNNY   79  72  78 SW13      29.82S HX  82
ESTHERVILLE    CLOUDY    72  69  90 S8        29.81F
6HR MIN TEMP:  66; 6HR MAX TEMP:  73; 6HR PCP:  0.01;

FORT DODGE *   CLOUDY    79  70  73 S9        29.83S HX  81
MASON CITY     CLOUDY    81  70  69 SW15      29.83F HX  84
6HR MIN TEMP:  67; 6HR MAX TEMP:  82;

FOREST CITY *  SUNNY     79  72  78 S10       29.81F HX  82
IOWA FALLS *     N/A     84  71  66 S15       29.82F HX  89
$$

IAZ007>011-017>019-026>030-037>042-050>054-066-291900-
   NORTHEAST IOWA

CITY           SKY/WX    TMP DP  RH WIND       PRES   REMARKS
CEDAR RAPIDS   SUNNY     85  74  69 S10       29.85F HX  92
6HR MIN TEMP:  66; 6HR MAX TEMP:  85;

CHARLES CITY * SUNNY     82  72  69 S12G18    29.83F HX  87
CLINTON *      MOSUNNY   82  73  74 S15       29.91F HX  88
DECORAH *      MOSUNNY   81  72  74 SW8G16    29.84F HX  84
DUBUQUE        MOSUNNY   81  72  74 S14       29.89F HX  85
6HR MIN TEMP:  67; 6HR MAX TEMP:  81;

MONTICELLO *   SUNNY     84  73  70 S10       29.87F HX  91
OELWEIN *      SUNNY     84  73  70 S13G22    29.85S HX  91
WATERLOO       SUNNY     86  69  56 S15       29.81F HX  90
6HR MIN TEMP:  67; 6HR MAX TEMP:  86;

$$

IAZ064-065-067-068-078-291900-
   EAST CENTRAL IOWA

CITY           SKY/WX    TMP DP  RH WIND       PRES   REMARKS
DAVENPORT      SUNNY     84  73  69 S14G20    29.89F HX  90
6HR MIN TEMP:  68; 6HR MAX TEMP:  84;

IOWA CITY      SUNNY     85  73  67 S10       29.87F HX  91
6HR MIN TEMP:  68; 6HR MAX TEMP:  85;

MT. PLEASANT * SUNNY     87  68  53 S9G16     29.87F HX  90
MUSCATINE *    SUNNY     86  72  62 S13G18    29.87F HX  92
QUAD CITIES    SUNNY     84  72  67 S12       29.88F HX  89
6HR MIN TEMP:  71; 6HR MAX TEMP:  84;

$$

IAZ062-063-075>077-085>089-095>099-291900-
   SOUTHEAST IOWA

CITY           SKY/WX    TMP DP  RH WIND       PRES   REMARKS
BURLINGTON     SUNNY     85  72  65 S12       29.88F HX  91
6HR MIN TEMP:  71; 6HR MAX TEMP:  85;

FAIRFIELD *    SUNNY     86  70  58 S13       29.86F HX  90
FORT MADISON * SUNNY     88  72  58 S7        29.89F HX  94
KEOKUK *       SUNNY     86  72  62 S12G17    29.87F HX  92
OSKALOOSA *      N/A     84  72  65 S13       29.85F HX  90
CENTERVILLE *  SUNNY     84  72  65 S8        29.87F HX  89
OTTUMWA        SUNNY     85  71  63 S12       29.84F HX  90
6HR MIN TEMP:  68; 6HR MAX TEMP:  85;

WASHINGTON *   SUNNY     84  73  70 S12       29.87S HX  91
$$

ABBREVIATIONS USED IN REMARKS
   TC - TEMPERATURES IN CELSIUS
  WCI - WIND CHILL INDEX
   HX - HEAT INDEX
  VSB - VISIBILITY
$$




USA.gov is the U.S. government's official web portal to all federal, state and local government web resources and services.